Regional Weather Roundup
Issued by NWS State College, PA

Home | Current Version | Previous Version | Graphics & Text | Print | Product List | Glossary On
Versions: 1 2 3 4 5 6 7 8 9 10 11 12 13 14 15 16 17 18 19 20 21 22 23 24 25 26 27 28 29 30 31 32 33 34 35 36 37 38 39 40 41 42 43 44 45 46 47 48 49 50
838
ASUS41 KCTP 220103
RWRCTP
NATIONAL WEATHER SERVICE STATE COLLEGE PA
900 PM EDT THU SEP 21 2017

Note: "fair" indicates few or no clouds below 12,000 feet with no
significant weather and/or obstructions to visibility.

* = STATION THAT DOES NOT REPORT PRECIPITATION /E.G. RAIN...SNOW...ETC/
    THUNDER OR FOG.

PAZ002>004-007>009-013>016-020>023-029>032-220200-
WESTERN PENNSYLVANIA

CITY           SKY/WX    TMP DP  RH WIND       PRES   REMARKS
ERIE           CLEAR     67  59  75 CALM      30.11R
MEADVILLE      CLEAR     71  60  68 NE5       30.14R
FRANKLIN*      CLEAR     70  63  78 CALM      30.14R
NEW CASTLE     FAIR      68  62  81 CALM      30.11R
BEAVER COUNTY  NOT AVBL
BUTLER*        CLEAR     67  63  87 CALM      30.12R
PITTSBURGH INT MOCLDY    77  64  64 E3        30.10R
PITTSBURGH     CLEAR     78  58  49 CALM      30.10R
INDIANA*       CLEAR     66  63  88 CALM      30.14R
LATROBE        CLEAR     68  64  88 CALM      30.11R
WASHINGTON CO* CLEAR     66  63  88 CALM      30.11R
$$

PAZ004>006-010>012-017>019-024>028-033>037-041-042-045-046-049>053-220200-
CENTRAL PENNSYLVANIA

CITY           SKY/WX    TMP DP  RH WIND       PRES   REMARKS
BRADFORD       CLEAR     64  61  90 CALM      30.16R
DUBOIS         CLEAR     69  59  70 N3        30.13R
CLEARFIELD     CLEAR     65  58  78 N5        30.12R
JOHNSTOWN      CLEAR     72  55  55 N5        30.15R
ALTOONA        CLEAR     65  60  84 CALM      30.12R
STATE COLLEGE  PTCLDY    70  61  73 CALM      30.10R
WILLIAMSPORT   PTCLDY    70  65  84 CALM      30.06R
SELINSGROVE    MOCLDY    67  66  97 N3        30.06R
FT INDIANTOWN  PTCLDY    69  66  91 CALM      30.05R
CAPITAL CITY   CLOUDY    74  64  71 W3        30.04R
HARRISBURG     CLOUDY    72  67  84 CALM      30.03R
YORK           PTCLDY    66  65  96 CALM      30.05R
$$

PAZ038>040-043-044-047-048-054-055-060>062-067>071-220200-
EASTERN PENNSYLVANIA

CITY           SKY/WX    TMP DP  RH WIND       PRES   REMARKS
SCRANTON       PTCLDY    69  64  84 VRB3      30.08R
MOUNT POCONO   CLOUDY    64  61  90 N6        30.11R
ALLENTOWN      CLOUDY    73  63  70 N5        30.03R
QUAKERTOWN*    MOCLDY    70  66  88 CALM      30.04S
READING        CLEAR     73  65  75 CALM      30.02S
LANCASTER      MOCLDY    73  67  81 N9        30.04R
COATESVILLE    PTCLDY    75  63  64 N5        30.06R
POTTSTOWN      PTCLDY    70  66  87 CALM      30.05
BLUE BELL      MOCLDY    64  64 100 CALM      30.04R
DOYLESTOWN     CLOUDY    71  64  78 CALM      30.03R
WILLOW GROVE   NOT AVBL
NORTH PHILA    PTCLDY    73  62  68 NE3       30.03R
PHILADELPHIA   MOCLDY    78  59  51 E3        30.01R
$$




USA.gov is the U.S. government's official web portal to all federal, state and local government web resources and services.